Theta_e
319 319 319 319 321 321 322 324 321 322 321 317 319 321 323 326 327 327 328 327 327 328 328 330 328 329 328 331 343 347 346 350 348 344 348 351 350 349 350 349 349 348 342 334 333 331 327 322 317 313 313 314 316 320 321 321 319 315 314 313 314 317 326 334 334 334 336 337 338 338 337 337 337 337 337 337 338 338 337 337 337 337 336 337 337 337 336 335 333 332 329 326 321 317 317 319 320
318 318 319 320 321 321 323 323 320 319 318 314 318 321 323 326 326 326 327 327 328 328 329 330 329 332 329 332 342 346 348 349 349 350 349 348 349 350 350 348 348 348 338 333 334 331 327 322 316 313 313 314 317 319 322 323 320 317 314 314 314 316 327 332 333 335 336 337 338 338 337 337 337 338 337 337 338 338 338 338 338 337 336 336 337 336 336 335 334 329 324 321 318 317 320 321 319
317 317 317 320 322 322 323 322 319 316 315 314 317 322 324 325 326 326 328 328 328 328 329 329 329 332 331 338 344 346 350 350 350 348 344 347 350 350 350 348 348 347 335 334 334 330 327 322 317 313 312 315 317 319 322 323 323 320 316 315 313 318 328 332 333 336 337 337 337 337 337 337 337 337 337 338 337 338 338 338 338 337 336 336 336 336 336 336 333 325 319 318 318 320 322 320 315
317 316 317 321 322 321 322 321 320 316 315 315 316 322 325 325 326 326 328 327 329 331 330 330 329 332 335 340 344 347 348 349 350 348 346 348 351 350 349 347 348 344 335 335 334 331 328 323 318 313 312 314 317 319 321 324 325 323 320 317 314 322 330 333 335 337 337 337 337 337 337 337 337 337 337 337 337 337 337 337 337 337 336 335 335 334 335 333 327 320 318 320 321 321 319 316 311
316 317 318 321 321 321 322 321 320 318 316 317 317 322 325 325 326 326 327 329 330 332 331 331 328 333 343 344 346 346 346 347 349 349 350 350 351 350 349 348 347 342 339 338 334 332 329 325 319 314 312 314 317 319 321 324 326 327 325 322 321 329 334 336 337 337 337 336 337 336 337 337 337 337 337 337 337 337 336 336 336 335 335 334 333 332 330 325 320 318 319 322 320 318 315 312 309
317 319 320 320 321 321 321 318 318 317 319 322 320 323 325 324 325 325 327 329 328 330 330 331 328 333 345 347 347 346 345 346 348 350 351 351 350 350 349 348 346 343 342 339 334 333 330 327 321 314 313 313 317 318 321 323 325 327 328 329 331 335 336 337 337 337 337 336 336 336 336 337 337 337 336 336 336 336 335 335 334 335 335 334 330 326 320 316 317 319 320 320 318 316 314 312 309
319 320 321 321 321 322 320 317 317 318 320 323 322 323 325 324 326 325 326 327 325 327 327 331 331 334 344 347 347 347 346 344 349 352 352 352 351 350 348 346 345 344 344 339 335 333 331 328 323 316 313 313 316 318 320 321 322 326 330 333 335 337 337 338 338 338 337 335 335 336 336 336 336 335 335 335 335 335 334 333 333 333 332 329 322 315 311 312 317 320 319 318 318 316 314 312 310
319 319 319 321 321 321 319 318 318 320 321 323 324 323 324 324 326 325 325 326 324 325 324 330 332 334 343 347 346 348 349 348 351 352 352 352 350 348 347 346 346 344 343 341 335 333 332 330 325 318 313 313 315 318 320 320 322 327 331 335 336 337 337 338 337 337 336 335 335 335 335 334 334 334 334 333 333 332 331 330 328 326 324 319 313 309 309 314 319 320 319 319 318 316 313 312 311
318 318 319 320 320 319 318 318 319 321 322 323 324 324 325 325 326 325 325 325 324 325 324 326 328 337 346 348 347 349 351 351 350 351 351 350 349 348 347 346 346 344 344 342 335 334 333 331 328 321 315 312 314 318 320 321 323 327 332 335 336 336 337 338 337 336 335 335 335 334 334 334 333 332 331 330 329 327 325 323 320 319 317 312 309 308 311 316 319 320 320 319 317 315 312 311 311
318 319 319 320 319 317 316 317 319 321 323 323 324 325 326 325 325 325 324 325 324 324 324 324 325 340 348 349 349 349 350 351 351 351 350 349 349 347 346 346 345 345 344 341 335 334 334 332 330 325 318 313 313 317 320 321 322 326 331 334 335 336 336 337 336 335 334 334 334 333 333 333 331 330 328 326 323 320 317 316 314 313 311 309 308 308 313 318 320 320 320 319 317 315 313 311 311
319 320 320 319 317 315 314 316 319 321 323 323 324 325 325 325 326 326 324 323 324 323 324 323 323 343 350 350 351 350 350 351 351 351 351 349 348 346 346 346 345 344 343 339 335 335 334 333 332 328 322 315 313 315 319 320 321 326 331 334 334 335 335 335 335 334 334 334 333 333 332 330 329 326 324 322 319 315 313 312 310 310 309 308 308 309 314 318 319 321 321 319 317 314 313 312 311
319 320 320 318 316 316 317 317 319 321 323 322 324 325 325 326 325 324 324 323 323 323 323 322 326 345 350 351 351 350 351 351 351 351 350 348 347 346 345 345 345 344 342 337 335 336 334 334 333 331 327 320 314 313 317 319 322 327 330 333 334 334 334 335 335 334 334 333 333 332 331 329 327 324 321 319 316 313 311 309 309 309 308 308 308 309 314 318 320 321 320 319 318 315 313 312 312
318 319 320 318 318 319 318 318 320 321 322 322 324 325 324 325 325 323 324 323 322 322 322 321 326 344 350 351 351 350 351 350 350 349 348 347 346 346 345 345 345 344 340 336 336 335 334 334 333 332 330 325 317 313 315 318 323 327 330 332 332 333 333 334 334 334 333 333 333 331 328 327 325 322 321 319 317 314 311 309 309 309 308 308 308 308 313 318 320 321 320 319 318 316 314 313 312
317 319 319 318 319 319 319 318 319 320 320 323 324 323 324 323 324 322 322 322 322 323 322 322 330 346 352 351 351 350 350 350 350 348 347 347 346 345 345 345 346 344 340 336 336 336 335 334 333 333 332 329 323 315 313 317 322 327 330 330 330 331 332 333 334 333 333 332 331 329 326 325 324 323 322 321 319 316 313 310 309 309 309 308 308 308 311 317 320 320 320 319 319 317 314 313 313
317 319 318 318 318 317 318 318 319 318 319 323 323 323 323 322 322 322 322 322 322 323 323 324 330 344 351 351 351 351 350 350 349 348 348 346 346 345 344 345 345 345 342 337 337 338 336 335 335 334 333 332 328 321 314 314 321 326 329 329 328 329 330 331 331 331 329 327 327 326 323 322 323 323 323 322 320 319 316 313 311 310 310 309 308 308 309 314 319 320 320 320 319 318 316 314 314
317 318 318 317 316 315 317 319 319 318 319 323 321 323 322 322 322 321 323 322 324 324 323 327 327 336 347 349 351 352 351 350 350 348 347 346 346 345 345 346 345 346 344 341 340 341 339 336 336 336 335 333 331 327 319 313 317 323 327 328 328 328 329 329 328 327 325 326 326 327 327 327 327 330 330 325 319 319 319 316 314 312 311 310 309 308 308 310 316 320 320 320 320 319 319 317 316
318 318 317 316 315 315 317 319 319 318 321 323 321 322 321 322 322 323 324 325 327 326 327 335 335 337 344 349 351 352 352 350 349 348 347 346 346 346 346 346 346 346 345 343 343 343 342 338 338 337 337 336 335 332 325 317 313 320 326 327 329 331 330 327 327 327 325 323 326 332 333 330 329 332 332 326 321 321 319 317 316 315 313 312 311 309 308 308 311 316 319 320 320 320 319 318 318
318 318 316 315 316 317 319 319 320 321 321 322 322 323 322 322 322 324 327 327 328 326 332 342 346 347 347 351 351 352 351 350 348 347 347 347 347 347 347 346 346 346 345 344 344 344 343 342 341 340 339 339 337 334 329 320 313 319 326 328 331 330 328 329 331 333 329 324 330 336 331 329 332 327 323 325 324 320 318 316 316 317 316 315 314 312 310 309 308 310 314 317 318 318 319 321 322
319 318 317 316 318 319 320 321 321 322 322 323 323 323 321 322 322 324 326 329 329 324 335 346 350 354 353 353 352 352 352 350 348 347 346 347 348 347 347 346 346 347 345 345 344 344 343 342 342 341 341 341 339 336 328 319 314 321 328 330 331 328 330 333 335 337 336 332 333 330 325 330 333 326 322 327 326 323 325 323 320 319 319 318 316 315 314 312 311 309 308 312 314 317 323 326 326
319 319 317 317 319 319 321 322 322 322 323 323 322 322 322 322 322 323 323 328 329 324 337 347 350 354 353 353 352 352 351 350 348 347 346 348 348 347 346 346 347 347 345 345 344 344 343 342 342 341 341 341 339 336 328 319 318 324 329 330 329 328 333 337 337 338 338 334 328 324 327 331 331 329 331 332 331 331 332 332 330 326 323 322 320 322 323 318 320 319 313 311 310 316 327 330 331
320 319 318 319 319 319 321 321 322 322 322 321 322 322 321 322 323 324 323 326 329 324 333 346 350 353 353 352 351 351 351 350 349 347 347 348 348 347 346 346 346 347 346 345 344 344 343 342 342 341 340 339 338 334 330 324 324 330 331 331 330 329 334 337 336 336 335 328 321 326 332 333 333 334 335 335 335 333 334 334 333 332 328 327 326 328 330 324 327 330 324 319 316 321 331 333 334
320 319 319 319 320 320 321 321 322 322 321 321 321 322 320 322 325 327 329 328 330 328 333 346 349 350 351 351 351 351 351 350 349 347 349 348 347 346 346 346 346 346 345 344 344 344 343 342 342 341 339 337 336 334 333 330 331 334 333 333 332 331 335 335 336 336 329 320 323 332 335 334 335 335 334 335 334 331 334 335 333 334 332 332 331 331 332 330 330 334 332 329 326 327 332 333 333
319 320 320 320 320 319 321 321 322 322 321 320 320 321 321 321 323 325 330 329 332 334 335 346 348 346 347 349 349 350 351 351 349 349 348 347 346 346 345 345 345 345 344 344 344 343 342 342 340 339 338 336 335 334 333 333 335 336 333 334 334 334 336 335 337 334 322 322 331 335 335 334 335 335 334 335 334 332 334 335 334 334 333 335 335 333 334 332 331 333 333 333 331 329 330 332 332
319 319 319 320 320 319 320 320 322 321 320 320 320 320 320 321 321 321 328 330 335 339 338 345 349 348 348 349 350 350 350 350 349 348 347 346 345 345 345 344 344 344 343 343 343 342 341 340 338 337 336 334 335 334 332 333 336 335 334 336 335 334 335 335 337 332 325 331 335 334 334 335 335 335 334 335 336 335 334 334 333 332 333 335 335 334 335 334 333 333 333 333 333 331 331 331 332
319 319 320 320 320 320 320 320 321 321 320 320 319 320 321 321 320 322 333 335 337 341 342 345 349 350 349 350 350 349 349 349 348 346 345 345 345 345 344 343 344 343 343 343 341 341 339 338 337 335 335 335 334 334 333 334 335 335 335 336 335 333 334 336 337 335 334 336 335 335 335 334 335 336 335 335 334 334 333 332 332 332 333 333 334 335 335 335 335 334 334 333 332 333 332 332 332
318 319 320 319 320 320 319 320 321 321 321 319 319 320 320 322 319 326 342 342 339 342 342 345 348 349 350 350 349 348 347 348 347 345 345 345 344 344 344 343 343 342 342 341 339 339 337 336 336 334 335 334 332 334 335 335 335 335 335 336 334 333 337 338 337 338 337 336 335 335 335 334 335 335 335 335 334 335 334 333 334 334 333 332 333 334 334 334 335 334 335 334 333 333 333 332 333
319 319 320 320 320 320 321 321 320 321 321 320 320 318 320 322 318 332 345 344 341 341 341 343 345 346 348 349 348 347 346 345 345 344 343 344 343 344 344 343 342 341 340 339 338 337 336 335 335 334 335 333 332 336 336 335 335 336 335 335 336 337 338 338 338 338 336 336 335 335 335 334 335 335 335 335 336 337 335 333 334 334 334 332 331 333 333 333 334 334 334 334 334 333 332 332 333
319 319 319 320 319 320 321 320 322 321 320 320 319 319 321 320 319 339 345 343 340 341 341 341 340 341 344 346 346 345 344 342 342 343 343 343 343 343 343 342 341 339 338 337 337 336 335 335 335 336 335 334 336 337 336 336 338 338 336 336 338 339 337 337 338 337 336 337 335 335 335 334 335 335 334 335 336 337 334 334 333 333 335 333 332 332 331 331 332 333 334 334 334 333 333 333 333
318 318 318 319 319 319 319 320 322 320 321 320 319 319 318 319 333 345 344 342 341 339 340 340 339 340 342 344 343 342 342 342 341 342 343 343 342 342 341 340 339 338 337 337 335 335 336 335 335 336 335 335 338 338 337 339 339 338 337 337 339 338 337 338 338 337 337 336 336 337 336 335 334 333 334 335 335 336 334 334 335 335 335 333 332 332 332 333 333 334 335 334 335 335 335 335 334
317 318 318 318 318 317 319 321 321 320 320 319 320 316 315 329 344 346 343 341 340 338 339 338 338 340 341 343 342 342 342 341 342 343 344 343 341 341 340 339 338 336 336 336 334 334 336 335 335 336 336 337 338 339 339 339 339 338 338 338 338 337 337 338 337 336 337 336 336 337 336 335 334 333 333 332 332 334 334 334 335 336 335 334 335 334 334 335 335 335 335 335 336 336 335 335 336
317 317 317 318 316 315 319 320 319 320 319 320 321 313 320 341 346 346 343 339 339 340 340 338 337 339 338 338 338 340 341 341 342 343 342 342 341 340 339 338 337 336 336 336 334 334 337 335 335 336 336 337 338 338 339 338 339 339 339 339 337 337 337 337 337 337 337 336 336 336 335 335 335 335 334 333 332 334 334 334 334 334 334 334 335 334 334 334 334 334 334 334 334 333 333 334 335
317 315 315 316 314 316 319 319 319 320 319 320 319 313 327 345 343 345 343 340 339 338 338 337 336 337 336 336 336 337 340 341 341 342 341 341 341 340 338 337 336 336 336 335 335 336 337 335 333 334 335 336 335 336 338 338 337 337 338 338 337 338 337 337 338 337 337 337 336 336 336 336 336 335 335 335 335 335 335 334 334 334 333 333 333 332 332 332 331 332 333 333 332 332 332 333 335
316 315 314 314 314 315 317 319 319 319 320 320 318 318 333 343 343 344 342 340 339 336 335 335 335 337 336 337 337 336 337 339 340 341 341 340 340 339 338 337 336 336 336 335 336 337 336 334 334 334 335 335 335 337 338 338 337 336 336 336 337 338 338 338 338 337 338 337 336 336 336 336 336 336 336 335 334 334 333 333 333 333 333 333 333 332 332 332 331 331 332 333 333 333 333 333 334
314 315 314 315 316 315 315 318 320 320 319 319 319 321 333 341 343 344 342 341 339 337 335 334 335 335 335 335 336 334 334 336 339 341 341 340 340 339 337 336 335 335 334 334 336 336 335 335 335 335 335 335 336 337 336 336 337 334 333 335 336 336 337 337 337 337 338 337 337 337 336 336 336 336 336 334 334 334 334 334 334 333 334 334 333 334 333 333 332 331 331 332 333 333 332 333 333
313 314 314 314 316 315 315 317 319 321 318 319 319 317 332 342 342 343 342 341 340 338 336 335 335 335 334 334 335 334 334 336 339 341 342 340 340 338 337 336 335 334 333 335 336 335 335 335 336 336 335 336 336 336 336 336 334 332 332 334 333 333 335 337 337 337 337 337 337 337 336 337 336 336 336 335 334 334 334 335 334 334 334 334 334 333 333 333 332 331 331 331 332 332 332 333 333
315 315 315 314 314 315 316 318 320 321 317 320 319 316 334 341 339 342 342 341 340 339 339 338 337 336 335 335 335 335 336 338 340 341 341 340 340 338 337 336 335 334 333 334 335 333 334 335 336 336 335 335 335 335 335 334 332 332 331 331 332 334 336 336 337 338 337 337 337 337 337 336 336 336 335 335 335 335 335 334 334 334 333 333 333 332 332 332 331 331 331 331 331 331 332 333 333
317 317 316 314 314 315 317 319 320 320 318 318 318 323 335 338 338 342 342 341 341 339 340 340 338 336 335 335 335 336 338 339 341 341 340 340 339 338 337 336 335 334 333 333 334 333 335 336 336 335 334 334 334 333 333 333 333 331 330 333 335 336 336 337 338 337 337 337 336 336 336 336 335 335 334 334 335 334 334 334 334 333 332 332 333 331 332 332 331 331 331 331 331 330 330 331 332
317 316 316 314 314 316 318 320 320 320 319 317 324 334 337 337 337 340 341 340 341 341 340 339 338 336 335 335 335 338 339 340 340 340 340 340 339 337 337 337 335 334 334 334 334 335 337 336 336 335 333 333 335 333 332 335 335 330 329 333 336 336 337 338 337 337 336 335 334 335 335 334 334 333 333 333 334 333 333 333 333 332 332 332 332 332 332 332 331 331 331 330 330 329 330 331 331
317 317 316 314 314 316 318 320 320 320 318 319 332 338 336 336 336 337 340 339 340 341 340 338 338 336 335 334 336 338 339 340 339 339 339 338 338 337 337 336 335 335 335 335 336 336 337 335 335 334 332 332 334 334 333 334 334 331 330 331 333 336 337 336 336 335 334 333 332 332 333 333 332 332 332 333 333 332 332 332 332 332 331 331 331 331 331 330 330 330 330 329 327 326 327 328 328
316 317 315 314 315 315 315 318 321 321 318 323 333 334 335 337 336 336 338 337 338 341 340 338 337 335 334 335 336 337 338 339 338 337 337 336 337 337 337 336 335 335 336 336 336 336 335 334 333 333 333 332 332 331 330 331 332 332 331 331 333 336 335 334 334 333 332 331 330 330 330 330 330 330 330 331 332 331 331 331 331 331 330 330 329 328 327 325 326 328 328 325 321 319 319 320 323
315 316 315 315 316 316 316 318 321 320 318 326 333 333 336 337 336 338 337 337 338 340 339 338 337 335 334 335 335 335 337 338 337 337 336 336 337 337 338 337 336 335 335 336 335 334 334 333 332 331 332 333 332 330 329 328 330 331 331 332 332 333 332 332 332 332 331 330 329 329 327 326 327 328 328 328 329 329 329 329 329 328 326 324 323 321 319 317 320 322 320 317 315 315 315 316 319
314 316 317 317 318 318 318 320 319 317 315 323 332 332 335 336 335 338 337 337 338 338 338 338 337 336 335 335 334 334 337 337 337 338 337 337 337 337 337 337 337 336 334 335 334 333 333 332 331 330 330 332 333 332 331 330 329 330 331 332 332 332 332 333 333 332 331 330 328 327 326 326 326 325 325 324 325 324 323 322 322 320 318 317 316 315 313 312 314 314 313 313 312 312 313 314 316
313 316 318 319 319 318 319 319 317 314 314 320 329 329 332 334 333 336 337 336 337 337 338 338 337 337 335 334 333 333 336 338 337 337 337 337 336 336 337 337 337 337 335 335 334 333 333 331 331 331 331 332 333 332 330 329 329 331 333 334 334 334 333 333 332 331 331 329 327 325 325 325 325 324 323 321 320 319 317 315 314 314 313 312 313 312 311 311 311 311 310 311 310 310 311 311 311
313 317 318 319 320 318 319 319 318 317 317 321 325 326 330 332 332 334 335 335 336 337 338 337 338 338 335 335 335 333 335 338 337 337 337 337 336 336 336 336 336 336 335 335 334 334 333 332 332 332 332 331 331 331 329 329 332 333 334 334 334 333 333 332 330 330 329 327 325 325 324 323 323 322 320 317 316 314 313 312 311 311 311 311 311 310 310 310 310 310 310 309 309 309 309 309 309
315 318 319 319 320 319 320 319 318 320 319 317 320 323 327 329 332 333 335 336 335 336 336 336 338 338 336 335 334 333 334 337 337 336 336 336 336 336 335 336 335 335 335 334 334 334 334 333 333 333 333 332 331 331 331 332 333 333 333 333 332 332 331 330 329 328 327 326 325 324 323 320 318 317 315 313 312 311 311 311 310 310 310 310 310 309 309 309 309 308 308 307 307 306 306 306 306
317 319 319 319 319 319 320 320 317 319 319 316 317 322 323 325 330 333 335 336 334 334 335 336 337 337 336 333 332 333 333 336 337 336 336 336 336 335 335 336 335 335 335 334 334 334 334 334 333 333 333 332 332 332 332 331 331 332 331 331 330 329 328 328 327 326 324 324 323 321 320 317 314 313 312 311 311 310 310 310 309 309 309 309 308 307 307 307 306 305 304 304 303 302 303 302 302
318 319 318 318 318 319 320 319 317 318 319 317 316 321 323 322 326 332 334 334 334 335 335 336 336 336 335 332 332 332 332 335 337 336 335 335 335 334 334 335 336 335 335 335 334 334 334 334 333 332 332 332 331 331 330 329 329 330 330 329 328 327 327 326 325 324 323 322 321 319 317 314 312 311 310 311 310 309 309 308 308 307 306 306 305 305 304 303 302 301 300 300 299 300 299 299 299
317 318 317 315 315 318 318 318 319 320 319 319 317 320 322 321 325 331 333 333 334 334 334 335 335 335 334 332 332 332 331 335 336 335 335 334 334 333 333 334 334 334 334 333 333 333 333 332 331 331 331 330 330 329 328 327 327 327 327 327 326 326 325 324 323 323 322 321 319 318 315 311 310 311 309 309 308 308 307 306 305 304 303 302 301 301 300 300 299 298 299 299 298 299 298 298 298
317 317 315 313 313 317 319 319 320 320 319 318 318 319 319 320 325 332 334 334 333 333 333 335 335 335 334 332 332 332 333 335 336 335 335 334 333 333 333 333 332 333 332 331 331 331 331 330 329 329 329 328 327 327 326 325 325 325 325 324 324 324 323 322 322 321 320 319 318 317 314 310 309 309 308 307 306 305 304 303 302 300 300 299 299 299 298 298 298 297 298 297 298 298 297 300 300
316 315 314 313 313 318 320 319 319 319 318 318 318 318 316 319 326 331 333 333 333 333 333 335 336 336 334 333 334 334 335 335 335 335 334 333 333 333 333 332 332 332 331 330 330 329 328 328 328 328 327 325 325 325 324 323 323 323 322 322 321 321 321 320 320 319 318 318 317 315 312 309 308 307 306 305 303 302 300 299 299 298 298 298 298 298 297 298 297 297 297 297 297 297 296 299 299
316 316 316 314 313 318 319 318 317 318 317 316 317 317 315 319 328 332 331 332 332 332 333 335 335 335 336 335 335 335 335 335 334 334 333 333 333 332 332 331 331 330 330 329 328 327 327 326 326 326 324 323 323 323 322 321 321 321 320 320 319 319 318 318 317 317 316 316 315 313 310 307 306 304 303 301 300 299 298 298 297 297 298 297 297 297 297 297 297 297 297 296 298 297 296 296 297
316 317 316 315 315 317 317 317 318 317 317 316 316 319 321 324 330 331 329 331 332 329 332 335 333 335 336 335 335 335 334 334 334 333 333 333 332 332 331 330 330 329 328 327 327 325 325 325 324 323 322 322 321 321 320 319 319 319 319 318 318 317 317 316 315 315 315 314 313 311 307 305 303 301 300 298 298 298 297 297 297 297 297 297 297 297 297 297 296 296 296 296 298 299 299 297 297
316 315 314 316 318 318 316 316 318 317 317 316 315 321 326 327 329 330 327 329 329 328 333 335 334 335 335 335 335 334 334 333 333 333 332 332 331 330 330 329 328 327 326 325 325 324 324 324 322 322 321 320 320 319 319 318 318 317 317 317 316 315 315 314 314 313 313 312 310 307 303 302 300 299 298 297 297 297 296 296 296 296 296 296 297 296 296 296 296 296 296 297 300 302 303 301 298
315 314 315 317 318 319 317 315 316 316 316 316 315 319 323 323 326 330 328 328 329 330 334 336 336 335 334 334 334 334 333 333 333 332 331 331 330 329 329 328 327 327 326 325 324 324 323 322 321 320 320 319 318 318 317 316 316 315 315 315 314 314 314 313 313 312 310 307 305 302 300 299 298 297 297 296 296 296 296 296 296 296 296 296 296 296 296 296 296 296 296 298 301 303 304 302 300
316 316 317 318 316 315 316 315 316 316 316 316 314 315 318 319 323 328 327 328 332 333 334 335 335 335 334 334 333 333 333 333 332 331 330 329 329 328 328 327 326 325 324 324 323 322 322 321 320 319 318 317 316 316 315 314 314 314 314 314 313 313 313 312 312 310 306 303 301 300 298 298 297 297 296 296 296 296 296 296 296 296 296 296 296 296 296 296 296 296 296 297 300 301 302 304 303
316 317 317 317 316 315 315 316 315 315 315 316 315 314 315 318 324 328 326 328 333 334 334 333 334 336 335 333 332 332 333 332 331 330 329 329 328 328 327 326 325 324 323 323 322 322 321 320 319 318 317 316 315 314 314 313 313 313 313 313 312 312 312 310 308 305 302 300 299 298 298 297 296 296 296 297 297 297 297 297 296 296 295 295 296 296 296 296 295 295 296 297 299 300 301 304 304
314 315 314 314 315 315 316 316 314 314 315 315 316 315 315 319 327 328 326 329 333 334 334 332 333 335 334 333 332 332 332 331 331 330 329 329 327 327 326 325 324 323 323 322 321 321 320 318 318 317 316 315 314 313 313 313 312 312 312 312 311 311 309 307 304 301 299 298 298 297 297 296 296 296 297 298 298 298 297 296 296 295 295 295 295 295 296 296 296 296 296 297 298 300 301 303 304
314 314 314 314 314 314 315 315 315 314 314 315 315 314 315 322 328 328 327 331 331 332 335 335 335 335 333 333 332 332 332 331 330 330 329 328 326 326 325 324 323 322 322 321 320 319 318 318 317 316 315 314 313 312 312 312 312 311 311 310 309 308 305 302 300 299 298 297 297 296 296 295 296 297 298 298 298 299 297 295 295 295 295 295 295 296 296 296 297 298 299 299 300 302 303 304 304
Wind_Speed
15 16 16 16 18 20 18 11 7 3 4 6 6 8 9 12 12 13 13 6 6 4 10 6 9 12 10 6 17 23 19 14 7 4 7 12 15 15 14 17 19 14 16 20 16 14 13 11 10 11 12 12 12 13 13 13 13 14 15 16 17 18 18 16 15 15 14 14 13 12 11 11 10 10 10 10 10 10 10 10 10 10 10 9 8 8 8 9 10 10 9 10 10 10 10 9 9
15 16 15 15 17 13 13 10 6 5 6 7 6 8 10 13 12 15 15 8 9 5 11 5 11 11 9 6 18 22 19 17 15 17 16 20 20 18 17 16 16 15 18 20 16 15 14 12 11 12 12 12 12 13 14 13 14 15 15 16 17 17 17 16 16 15 14 13 12 11 11 10 10 10 9 9 10 10 10 10 10 9 9 8 8 8 7 8 9 9 9 9 9 10 10 9 8
14 15 14 13 14 13 12 10 6 7 7 7 6 8 10 11 13 16 15 15 15 11 9 8 12 10 7 9 18 15 11 13 18 21 19 20 21 20 19 19 15 13 20 20 16 15 14 13 11 12 13 13 13 13 14 13 14 15 16 16 17 17 17 16 15 14 13 12 12 11 10 10 9 9 9 9 9 9 9 9 9 8 8 8 8 7 6 7 8 9 8 8 9 10 9 8 8
14 13 12 11 13 11 10 7 6 8 8 7 6 9 11 11 13 15 15 16 12 10 8 10 11 10 7 9 14 12 11 13 13 15 17 17 20 23 21 21 14 13 21 19 17 15 14 14 12 13 13 13 13 13 14 13 14 14 15 16 17 17 16 15 14 13 12 12 11 10 10 9 9 8 8 8 8 9 9 9 8 7 7 7 7 6 5 7 9 8 7 8 9 10 9 8 8
13 10 9 9 10 8 7 5 6 8 8 8 6 8 11 12 13 15 11 3 5 4 5 8 10 5 14 15 12 9 9 12 11 13 18 19 22 25 22 18 12 15 20 17 18 16 15 15 13 14 13 14 13 14 14 13 14 14 15 16 17 16 15 14 13 12 12 11 10 9 9 8 8 8 7 7 8 8 7 7 7 6 6 6 6 6 6 7 8 7 7 8 9 10 9 8 9
10 10 9 11 11 8 7 6 7 9 10 11 8 10 12 15 16 17 15 4 5 1 2 7 12 2 16 17 15 13 8 9 11 14 22 24 24 24 19 15 14 19 19 16 19 17 16 15 13 14 14 14 13 14 13 13 14 14 15 16 15 15 14 13 12 12 11 11 9 9 8 7 7 7 7 7 7 6 6 5 5 6 5 5 6 6 6 7 7 7 7 8 9 9 9 9 10
8 11 11 11 12 9 7 8 10 9 11 14 12 14 13 15 17 19 22 11 3 3 4 6 6 3 9 13 13 13 9 12 13 17 23 26 24 19 17 18 20 23 19 15 18 18 17 16 14 14 14 14 13 13 13 13 13 15 16 15 15 14 13 13 12 11 10 10 9 8 7 7 6 6 6 6 6 5 4 4 4 4 3 4 6 6 6 6 7 7 7 8 9 9 10 10 11
7 10 11 8 7 6 7 9 10 10 11 15 15 17 17 18 20 20 19 7 4 6 8 4 1 1 7 13 11 12 15 17 18 21 24 25 23 20 21 22 24 23 19 15 18 19 18 16 15 14 14 14 14 14 13 13 13 15 16 15 15 14 13 12 12 11 10 9 8 7 6 6 5 5 5 4 4 3 3 3 3 3 4 4 5 5 6 7 7 7 8 9 9 9 10 11 12
10 11 10 7 7 7 10 10 11 12 13 15 15 18 21 22 23 22 18 10 4 8 13 9 3 3 13 19 16 14 17 17 18 21 22 23 23 23 23 22 23 21 16 15 18 20 19 17 16 15 14 14 14 14 14 13 14 16 16 15 14 13 13 12 11 10 9 8 7 6 5 5 4 3 3 3 3 3 3 4 4 3 4 4 4 5 7 8 8 7 8 9 9 9 10 12 12
11 12 9 6 7 10 10 10 11 12 15 17 18 21 22 25 27 21 15 12 7 9 14 13 5 11 19 19 17 14 16 17 16 18 20 23 24 24 22 19 20 16 13 17 21 20 20 18 16 15 14 14 14 14 14 14 14 15 16 15 14 13 12 12 11 10 9 7 7 5 4 3 3 2 2 2 3 4 4 4 3 3 3 3 5 6 7 8 8 8 8 9 9 10 10 12 12
11 12 11 8 7 10 10 10 11 12 15 16 18 21 25 28 21 9 4 4 6 11 17 18 5 20 20 15 17 16 19 18 17 20 22 23 24 23 22 20 18 13 10 19 23 20 20 18 16 15 14 14 13 14 14 13 14 16 16 15 14 13 12 11 10 9 8 7 6 5 3 2 2 1 2 3 3 4 4 4 4 4 4 4 5 6 8 8 8 8 8 9 9 9 10 11 11
10 9 10 8 8 9 10 12 13 14 16 16 16 21 31 28 11 6 6 2 7 12 13 17 4 24 16 12 19 18 20 20 21 24 22 21 22 22 24 23 17 12 10 18 22 20 19 18 17 15 14 13 13 14 14 14 15 15 15 14 13 12 11 10 10 9 7 6 5 3 2 1 1 2 2 3 4 4 4 4 4 4 5 5 5 6 7 8 8 8 8 8 8 9 9 9 9
12 9 8 9 9 10 12 13 13 15 14 14 16 22 33 23 6 7 8 3 8 12 10 16 6 21 14 13 20 20 21 22 25 24 21 21 23 22 22 20 16 12 12 19 22 19 18 16 16 15 14 14 14 14 14 14 15 15 15 13 13 12 11 10 9 8 6 5 4 2 2 2 2 2 3 4 4 5 5 5 5 5 5 5 5 5 7 8 7 7 7 7 8 8 8 8 8
15 13 10 9 11 12 13 11 12 14 11 14 13 8 10 5 5 4 4 6 8 11 11 12 7 19 17 16 18 21 22 24 27 24 22 22 23 23 19 19 18 13 13 21 21 18 17 16 15 15 14 14 13 14 14 15 15 15 14 13 12 11 10 9 8 6 5 4 3 2 2 2 3 3 3 4 5 5 5 5 5 5 6 6 5 5 6 7 7 6 7 7 7 7 7 7 6
17 16 10 8 10 12 12 11 13 13 10 14 7 9 11 10 6 6 6 8 8 12 12 9 12 13 15 16 15 24 28 26 27 25 25 23 23 23 21 21 19 16 16 20 19 16 16 15 14 13 12 12 12 13 14 15 16 15 14 13 12 11 9 7 6 5 4 4 4 5 5 5 5 4 4 5 5 5 6 6 6 6 6 6 5 5 4 6 6 6 6 6 6 5 5 5 5
18 15 8 8 11 11 11 12 13 12 12 9 5 10 6 7 8 8 5 6 6 12 9 5 11 13 20 21 22 31 32 29 28 27 28 26 25 24 21 21 20 20 18 18 19 16 13 13 14 12 12 11 10 11 12 15 15 16 14 12 12 10 8 6 6 6 6 7 7 8 7 7 6 5 4 5 6 6 6 6 6 6 6 6 6 5 4 4 5 5 5 4 4 4 4 3 3
17 13 9 8 11 11 11 12 11 12 12 6 9 6 4 5 7 6 3 5 6 13 4 10 4 15 23 24 31 35 32 31 32 31 30 27 26 24 22 23 23 22 21 20 20 17 13 13 14 12 12 11 10 10 11 13 15 16 14 13 12 10 8 8 9 9 8 8 7 7 5 5 6 5 3 3 5 6 6 5 7 7 7 7 7 6 5 4 3 4 4 4 3 3 3 3 2
15 9 9 10 10 11 11 12 11 13 11 6 9 3 2 2 3 4 4 5 7 15 5 24 23 23 26 30 35 33 30 31 34 32 29 28 26 25 25 26 24 21 22 21 19 17 14 14 13 12 12 11 10 11 11 13 15 16 14 13 12 10 9 9 10 8 7 7 6 4 4 6 6 4 3 2 3 6 6 6 7 7 7 6 6 6 5 4 3 2 3 3 2 2 2 2 1
14 7 8 10 10 12 14 16 15 17 14 7 9 5 3 4 6 3 3 6 9 12 9 28 27 28 31 33 33 30 27 28 32 32 29 28 26 27 26 26 23 21 21 20 19 18 15 15 15 14 13 11 10 10 13 14 16 17 15 14 12 11 10 8 8 6 5 4 4 3 5 8 3 0 3 2 2 5 5 6 6 6 6 6 6 6 6 6 5 4 1 2 2 2 1 2 2
16 11 8 10 12 15 17 19 21 17 10 0 6 6 4 5 7 6 5 8 9 11 10 24 25 28 31 31 31 28 26 25 28 29 28 26 26 27 27 25 23 21 21 19 20 18 16 16 16 15 14 12 9 10 13 14 15 15 14 13 12 12 10 8 7 6 3 3 4 6 7 8 5 3 3 2 2 2 3 4 5 5 4 5 7 6 5 6 7 7 4 2 1 1 1 4 5
14 14 10 11 15 15 19 24 23 14 7 7 4 4 3 6 6 7 8 9 8 13 14 25 30 31 32 31 29 27 26 26 26 28 27 25 26 26 24 23 21 20 20 19 19 18 16 16 16 16 14 11 7 8 11 11 13 13 11 11 11 11 9 7 7 6 4 5 7 7 6 4 3 3 2 2 0 1 2 4 4 4 3 2 5 6 5 7 8 8 7 6 3 1 3 8 6
12 15 16 17 18 13 19 26 18 10 5 8 9 1 7 9 3 7 9 10 7 6 8 29 36 34 35 31 30 28 27 26 26 28 25 24 26 25 24 22 20 20 19 19 19 18 17 16 16 15 13 12 8 8 10 10 14 12 11 10 10 9 7 5 5 5 6 7 7 5 4 4 3 3 1 2 1 1 2 4 3 3 3 2 4 4 5 6 8 10 11 11 9 5 5 6 6
11 13 20 22 22 17 20 23 9 5 6 6 10 9 11 9 6 10 11 14 6 7 4 29 33 30 32 30 30 28 26 25 25 25 23 25 25 24 25 23 21 20 20 20 19 18 17 15 15 14 13 14 13 11 12 13 15 13 10 10 9 10 10 8 7 7 7 8 6 5 6 4 2 2 1 1 1 1 3 3 3 3 3 1 3 2 2 1 2 5 10 11 11 9 6 6 8
15 12 17 20 23 22 25 24 6 3 8 8 14 13 11 8 9 11 10 14 2 16 14 30 30 28 29 27 27 26 26 25 24 23 22 25 24 24 25 23 21 20 20 19 17 17 16 15 15 15 13 15 16 15 13 14 15 13 11 11 10 11 13 12 11 9 8 7 5 5 6 3 2 1 1 1 1 2 3 3 3 3 2 1 0 1 1 2 3 3 4 5 6 8 7 7 8
18 15 16 18 22 23 26 27 10 5 9 13 17 13 12 10 12 12 5 4 8 21 22 29 25 26 27 26 26 24 26 24 23 24 24 25 24 25 24 22 21 20 19 18 16 16 15 15 16 16 15 16 18 16 13 13 13 11 13 13 11 12 13 12 12 9 7 6 5 5 4 4 4 2 2 2 2 2 2 1 1 2 1 0 1 1 0 1 2 4 5 5 6 9 9 9 10
16 18 19 18 21 22 23 25 16 10 11 14 15 13 15 14 15 8 10 10 8 15 16 20 21 22 22 23 25 24 25 24 24 25 23 23 23 24 23 21 20 19 18 18 16 15 15 15 16 16 15 15 17 16 14 15 14 13 15 15 12 12 13 11 11 9 7 5 5 4 3 3 3 2 2 2 1 0 1 1 1 1 1 1 1 1 1 2 3 3 4 5 7 10 10 10 10
17 20 22 20 22 22 18 17 17 15 13 14 14 13 16 17 17 4 15 13 9 15 13 11 9 12 17 22 24 24 23 23 22 21 19 19 19 19 22 21 20 19 17 16 13 12 14 15 15 15 14 14 16 15 15 15 14 14 14 15 13 12 12 11 9 8 7 4 4 4 2 2 2 1 2 2 1 1 1 1 1 1 0 1 1 1 1 2 3 2 3 5 6 7 8 9 10
20 20 19 20 22 22 16 13 16 15 13 17 16 13 16 19 14 5 15 11 11 14 14 8 7 10 13 20 23 21 20 20 18 17 16 17 18 19 20 20 20 19 16 15 12 11 14 15 15 13 12 14 14 13 15 15 14 13 13 14 13 11 11 11 8 7 7 5 4 4 3 3 2 2 2 3 1 1 2 2 2 2 1 1 0 1 1 1 2 2 2 4 6 6 7 7 9
21 18 12 14 18 19 18 16 17 16 12 18 16 12 15 14 5 13 15 14 16 18 18 14 5 6 11 15 18 18 19 21 20 20 21 20 20 20 20 18 19 17 15 15 13 11 14 14 13 11 10 12 13 14 15 14 13 13 14 13 11 11 11 10 8 6 5 4 4 4 4 4 3 3 2 3 3 2 2 1 1 2 2 1 1 1 1 1 0 2 4 5 7 7 8 9 9
19 16 10 10 13 15 18 17 17 17 14 18 15 9 11 6 9 15 17 20 24 22 18 16 12 9 8 10 15 18 19 21 22 25 25 23 21 20 20 18 17 17 16 15 10 11 13 12 12 10 9 10 11 12 11 11 12 12 12 11 10 10 9 8 6 6 4 4 4 4 4 4 4 4 3 3 5 3 2 0 1 1 1 1 2 1 1 0 1 3 4 5 7 8 9 9 10
14 13 10 9 8 11 17 17 16 15 14 19 15 9 7 7 11 11 15 25 28 21 19 18 14 8 5 7 11 17 21 20 20 24 25 24 22 21 21 19 18 17 15 12 10 13 15 13 12 10 9 8 7 6 5 6 10 10 9 10 11 9 8 7 7 6 5 4 4 4 4 4 4 4 3 3 3 3 1 1 2 2 1 2 3 2 2 1 2 3 4 5 7 8 9 9 10
10 11 10 10 9 10 15 19 18 16 14 20 17 8 5 8 10 10 11 20 25 22 21 20 17 14 9 9 10 12 19 18 17 22 24 23 22 22 22 20 18 16 12 13 14 16 15 13 11 9 9 7 4 4 4 5 7 6 4 7 9 9 8 8 8 7 6 4 4 4 4 4 5 4 4 3 3 3 2 2 3 3 3 4 4 3 3 3 4 4 5 7 8 9 9 9 9
10 11 10 11 11 10 12 18 22 20 15 18 18 8 5 9 11 13 13 16 20 20 20 18 21 22 17 18 17 15 17 16 15 19 21 22 22 22 22 21 19 16 14 16 16 15 13 13 12 11 10 8 6 6 5 5 5 4 4 5 6 7 8 8 8 7 6 4 4 4 4 5 5 4 4 4 4 3 3 4 4 5 5 5 5 4 4 5 7 7 7 8 9 10 10 10 10
10 11 10 11 14 12 11 14 21 23 18 16 18 13 6 12 13 13 14 15 17 17 15 16 20 18 15 18 16 16 18 17 15 16 18 21 22 20 20 22 21 18 17 17 15 14 13 13 12 12 11 9 7 6 5 5 5 4 5 6 4 3 5 7 7 7 6 5 6 5 5 5 5 5 4 4 4 4 4 5 5 5 6 6 5 5 5 6 8 8 8 8 9 10 10 11 12
12 11 10 10 13 14 14 13 17 22 21 17 17 16 8 15 14 12 13 13 15 16 12 14 17 14 16 15 10 14 19 17 17 17 18 20 21 20 20 23 21 18 18 18 16 15 13 12 12 12 12 9 8 7 6 7 6 6 6 6 3 2 3 5 6 7 7 6 6 5 5 4 4 4 4 4 3 3 3 4 4 5 5 5 5 5 6 6 7 8 8 8 8 9 10 11 13
15 14 12 12 12 13 17 15 17 22 19 17 17 15 12 14 12 11 13 12 13 15 14 13 14 13 16 13 9 14 17 18 20 19 19 20 21 22 20 21 19 16 19 19 17 14 11 11 12 12 12 10 9 9 7 6 7 8 6 5 4 4 4 6 7 7 7 6 5 5 4 3 2 2 2 2 3 2 2 2 2 2 3 4 4 5 5 7 8 8 7 8 8 7 8 10 13
17 15 13 16 14 11 17 16 17 20 15 16 17 12 15 14 11 11 12 13 12 13 15 14 13 13 13 13 14 14 14 19 22 20 21 22 23 23 20 19 18 18 20 17 15 13 12 11 11 12 13 11 10 10 8 6 7 7 7 6 5 3 3 6 7 6 6 5 5 4 4 3 3 3 3 3 3 3 2 1 1 2 3 3 3 4 5 6 7 7 6 6 7 8 7 9 12
17 14 13 14 14 12 17 16 17 20 13 14 13 12 15 14 12 11 11 11 10 12 15 15 15 15 14 17 19 15 14 18 19 19 21 23 23 22 19 18 18 18 17 15 14 14 13 13 13 13 13 11 10 10 8 6 6 6 5 4 3 2 2 4 5 5 5 4 3 4 5 5 5 6 7 6 5 4 3 3 4 4 4 5 5 5 6 6 7 8 8 6 6 7 7 7 10
15 12 12 11 13 12 15 17 18 19 11 10 16 14 11 13 13 11 10 9 9 11 14 15 16 17 19 21 21 19 17 17 17 17 19 21 22 21 19 19 18 17 17 16 16 16 16 15 15 14 13 11 10 10 9 6 6 6 3 2 1 2 4 4 5 4 3 2 3 5 5 5 6 7 8 7 6 5 4 4 6 6 6 7 7 8 10 11 11 10 10 10 9 8 8 7 8
14 12 11 10 14 14 12 16 19 18 10 8 15 12 8 11 11 9 11 10 9 10 11 13 14 16 20 23 24 22 18 17 18 17 17 18 22 23 21 22 22 20 21 21 19 18 18 17 16 14 13 12 10 9 8 6 6 5 4 2 3 5 5 3 2 2 3 3 3 3 3 4 6 7 9 8 8 7 6 7 7 8 9 9 10 10 9 9 9 10 10 11 10 9 8 6 5
15 16 13 10 15 18 12 10 15 15 12 11 13 9 5 8 8 9 10 11 11 11 11 12 15 15 18 22 24 22 19 19 20 20 18 19 23 24 23 24 24 22 23 22 20 19 18 17 16 14 13 12 9 9 8 6 5 4 3 2 3 5 3 1 1 3 5 4 3 3 4 6 7 8 9 8 8 9 8 9 8 8 8 7 7 6 5 5 3 5 7 9 9 10 11 9 8
14 17 18 14 16 21 15 12 13 9 11 13 14 7 3 5 7 9 9 9 10 12 12 14 17 17 19 22 23 23 22 22 21 21 21 20 21 23 24 24 22 21 23 22 21 19 18 18 17 14 13 13 11 10 10 8 6 4 2 2 3 4 3 2 2 2 3 4 4 4 5 6 6 6 5 3 5 6 4 3 2 1 2 3 3 5 7 8 6 6 8 9 10 10 11 10 11
10 14 18 16 15 21 19 16 13 8 9 12 14 7 3 3 6 9 9 8 10 12 11 13 17 21 21 21 24 28 27 24 22 21 21 21 22 25 26 24 23 21 22 23 21 20 20 19 18 15 15 15 13 12 10 8 6 5 4 4 6 6 5 5 4 4 4 5 5 5 5 6 5 2 1 2 3 2 4 5 4 5 5 6 6 7 8 8 8 9 9 9 10 10 11 11 13
9 13 17 19 18 21 17 14 10 8 8 11 13 10 4 4 7 9 10 9 10 12 11 12 16 21 22 21 23 28 29 26 24 23 22 21 23 27 27 26 26 24 23 24 22 21 21 21 19 17 16 16 13 10 9 8 7 6 5 6 9 7 6 6 7 6 6 6 5 6 6 3 1 2 4 5 5 6 7 6 6 6 6 6 7 7 7 7 7 7 8 8 8 9 11 11 12
9 14 19 19 17 14 15 13 9 10 9 9 13 13 7 5 7 9 11 11 11 13 14 13 14 16 16 18 20 21 24 25 24 23 23 22 22 25 26 28 28 24 24 25 23 22 22 21 21 19 17 16 13 11 11 9 8 7 7 7 8 8 7 6 7 7 7 6 6 7 5 2 5 5 6 6 7 7 7 7 7 7 7 6 7 6 6 6 5 6 6 7 7 8 10 11 12
12 17 20 16 11 9 12 13 10 10 9 10 13 14 9 5 8 10 9 10 11 12 12 13 16 15 11 18 23 18 18 22 22 21 22 23 22 21 25 29 27 24 24 25 24 23 22 22 21 21 18 16 14 12 11 9 9 10 11 9 9 9 8 6 5 5 3 3 3 4 1 4 8 7 7 7 7 8 7 7 7 7 7 6 6 6 5 5 5 6 7 8 9 9 9 10 12
16 16 16 13 9 7 9 11 9 7 8 11 14 16 12 7 8 11 10 12 14 13 12 13 15 16 13 18 22 18 18 21 22 20 20 22 21 20 24 29 28 27 26 25 25 24 22 21 21 21 19 15 12 11 9 8 8 11 11 10 8 7 7 5 3 1 2 2 1 1 3 6 9 8 8 7 7 8 7 7 7 7 7 6 6 6 5 5 6 8 9 9 10 10 10 11 12
17 12 10 10 8 4 4 6 6 6 7 12 15 17 15 9 7 11 13 15 16 14 15 15 16 19 19 20 22 22 22 22 22 21 21 22 22 21 23 27 28 27 25 24 24 23 21 21 20 20 19 15 11 9 8 7 7 9 10 10 9 7 6 7 6 5 5 4 2 2 4 8 10 8 8 8 7 8 7 7 7 7 7 6 6 7 6 7 8 8 9 9 10 10 11 12 13
16 12 10 10 8 5 5 5 5 7 9 11 14 16 14 9 8 15 17 16 18 17 16 19 21 22 23 23 26 26 24 24 22 22 24 24 24 23 23 26 26 24 23 23 23 22 20 19 18 19 19 17 12 10 10 9 7 7 8 9 10 9 8 8 9 8 7 6 5 4 6 9 10 9 9 9 8 8 7 7 7 7 8 8 8 9 8 8 9 10 9 9 11 12 12 13 14
16 13 11 10 8 7 8 7 7 8 9 12 15 14 11 7 7 18 21 18 22 23 21 23 25 26 27 26 27 26 25 25 21 21 23 24 24 24 23 25 25 24 24 23 22 21 19 17 16 16 17 16 12 10 10 10 8 8 7 8 10 12 11 10 10 9 9 8 7 6 9 10 11 10 9 9 9 8 8 8 8 9 10 10 9 10 10 10 10 11 10 10 12 13 14 13 13
14 13 12 10 9 8 7 7 8 8 9 12 14 10 7 6 5 13 18 18 22 25 26 28 25 25 28 26 25 26 26 24 20 20 22 22 24 24 24 24 24 24 23 23 22 21 18 16 15 15 15 15 12 9 9 9 9 9 9 9 10 11 11 11 10 10 9 9 8 9 11 12 11 11 10 9 9 9 10 10 10 10 10 10 11 11 11 11 11 12 10 11 13 14 14 13 13
11 12 11 9 10 8 5 7 6 4 6 8 8 3 1 2 5 9 13 15 19 22 24 31 28 24 25 25 24 25 26 24 21 21 22 22 23 24 24 24 22 22 22 22 23 23 20 17 16 16 15 14 12 9 9 9 8 7 9 11 11 11 10 10 10 11 11 10 10 11 13 13 12 11 10 10 10 10 11 11 11 11 11 11 11 11 12 12 12 12 11 12 14 14 14 14 14
8 11 12 10 13 10 5 7 4 1 5 6 6 3 5 5 5 9 14 15 17 18 21 28 29 28 26 25 26 26 25 24 22 23 24 23 22 23 23 22 22 23 23 24 25 24 20 18 17 16 14 13 11 10 9 9 8 8 9 11 12 12 10 11 11 11 11 11 13 14 14 13 12 12 12 11 11 11 12 12 12 12 11 11 12 12 13 13 13 13 13 13 14 14 13 13 14
8 10 12 10 12 11 6 6 4 3 6 5 8 9 7 7 5 8 15 16 13 15 20 23 25 27 25 24 27 26 25 25 24 25 25 22 21 21 21 21 23 25 25 24 23 21 19 18 17 16 15 13 11 9 8 8 9 10 11 11 12 12 11 12 12 12 13 15 16 16 14 13 13 13 13 13 12 12 13 13 14 13 12 12 13 14 14 14 14 14 14 14 14 13 12 13 14
14 10 11 9 9 9 6 5 5 6 7 5 9 14 9 8 7 9 14 16 14 12 13 19 22 23 24 24 25 25 25 27 27 27 25 22 21 21 21 22 23 25 25 24 22 21 19 18 17 16 15 13 10 9 8 8 9 11 13 14 13 12 12 12 13 14 16 17 16 15 14 14 14 14 14 14 14 14 14 14 14 14 13 13 14 15 15 15 14 13 14 14 13 12 12 13 14
17 13 11 9 7 8 8 5 5 6 6 5 9 11 8 7 9 13 14 14 18 14 10 14 19 23 25 25 25 25 26 28 30 28 26 25 23 21 22 24 25 24 24 23 23 22 20 18 17 15 13 11 10 11 12 12 12 13 15 15 14 13 13 14 16 17 18 17 16 15 15 14 14 14 15 15 15 14 14 14 13 14 14 14 14 15 14 14 14 13 13 13 12 12 12 13 14
14 12 11 10 8 7 8 7 6 6 6 5 7 7 6 5 8 15 16 14 20 19 14 13 18 24 26 25 26 26 27 29 29 28 27 28 27 25 26 26 25 24 23 23 23 22 20 19 17 14 11 10 11 13 14 15 16 16 16 16 15 14 16 18 19 18 18 16 16 15 15 16 16 15 15 15 15 14 13 13 13 13 13 13 13 14 13 13 13 13 13 13 14 14 14 14 14
11 8 9 11 9 8 9 8 7 7 6 6 6 5 5 3 6 13 14 12 17 21 19 16 20 26 27 26 28 28 28 29 29 28 29 30 30 29 29 26 25 24 22 23 22 20 20 18 14 11 10 11 12 13 15 16 17 17 16 16 17 18 19 20 19 18 17 17 16 16 15 16 17 16 15 15 15 14 13 12 12 12 13 13 12 12 12 11 12 13 13 14 14 14 14 14 14
Wind_Direction
311 316 325 335 344 336 313 295 281 260 263 276 272 272 286 297 293 294 304 312 302 52 78 31 356 352 328 336 82 74 43 44 47 55 121 140 139 141 148 162 178 182 172 167 162 157 143 138 139 127 117 112 114 113 113 114 114 115 117 120 122 123 119 115 113 110 107 105 101 100 99 97 96 98 95 94 91 89 92 89 88 81 80 77 67 76 79 63 48 38 27 25 24 26 28 26 30
308 312 323 338 333 314 302 307 289 278 272 272 266 262 267 280 287 280 286 282 282 38 74 358 335 336 313 3 72 73 53 51 75 96 123 137 135 145 150 150 170 178 166 164 159 154 141 135 135 125 116 115 118 115 116 116 116 116 118 120 121 121 121 116 113 110 108 106 104 104 102 100 100 102 100 97 94 92 91 89 91 82 77 74 69 75 72 59 42 26 20 21 24 28 31 30 39
305 311 325 340 316 284 281 285 266 276 272 272 270 266 254 256 264 265 277 282 297 11 37 332 325 317 311 24 56 68 75 65 80 105 123 134 137 142 144 145 162 175 164 162 156 152 140 133 132 124 117 119 121 118 118 117 117 117 117 118 118 119 119 114 112 111 109 109 107 109 106 105 105 104 103 97 95 92 91 91 91 83 76 71 65 67 62 46 25 18 25 27 28 33 35 36 51
300 308 326 329 308 292 280 268 263 273 265 266 267 267 262 260 258 257 267 276 304 11 0 322 313 317 352 62 82 78 83 82 88 112 123 136 143 143 146 150 160 162 158 160 154 151 140 132 130 123 117 121 123 121 120 119 119 116 115 114 117 119 116 113 113 112 111 112 111 112 110 109 108 106 104 98 95 93 91 90 88 81 72 68 62 56 44 23 16 25 35 34 35 39 42 46 61
297 314 325 299 293 305 293 281 276 269 264 271 267 264 268 273 266 268 264 192 64 26 327 313 290 337 59 71 93 97 94 102 108 119 124 137 150 149 150 151 149 146 151 157 153 148 138 131 128 125 119 122 125 124 123 122 122 118 117 116 119 119 116 116 115 116 116 117 116 115 114 112 112 109 104 99 95 91 88 86 81 72 69 67 54 37 19 15 25 42 45 42 45 47 51 56 69
300 318 298 256 265 292 289 267 265 265 268 278 281 276 278 282 284 292 282 190 103 169 271 278 268 324 81 75 80 98 130 129 114 123 125 135 152 155 147 137 133 142 153 160 153 145 137 130 127 127 121 124 127 127 127 126 127 123 121 120 121 119 118 121 119 120 121 123 123 120 119 117 115 109 104 98 95 91 87 82 70 65 65 50 27 14 13 27 50 59 55 52 54 55 60 66 77
291 297 276 247 250 255 259 254 259 260 263 269 271 272 270 274 277 280 273 263 286 251 230 244 260 320 100 105 83 74 120 140 128 130 131 140 152 147 134 137 141 147 158 161 152 143 136 130 127 127 124 126 129 130 130 128 126 121 124 124 122 122 124 125 124 126 126 130 130 127 124 119 115 107 101 94 92 87 82 70 60 56 38 13 7 15 28 54 75 74 66 62 58 60 67 74 83
262 269 271 269 264 247 255 258 259 257 260 259 260 269 268 269 270 272 281 305 343 284 284 280 217 296 106 108 93 71 97 127 141 142 142 146 145 134 134 149 152 154 164 164 156 144 134 131 129 128 127 129 132 134 132 130 125 122 124 125 125 129 131 130 132 133 133 137 135 134 128 120 113 103 97 86 79 67 56 35 22 13 9 8 17 35 60 84 90 85 74 65 61 66 75 80 88
245 245 258 265 266 264 261 261 263 264 268 264 260 262 263 266 263 264 276 287 281 277 285 287 282 125 108 100 100 96 98 119 142 144 148 147 140 135 140 154 152 154 171 172 161 147 135 133 131 130 131 131 134 136 136 134 130 127 126 128 133 135 136 137 139 140 139 140 140 139 130 120 109 96 80 61 39 19 7 359 359 5 18 23 40 62 88 102 99 90 79 71 68 73 79 84 91
238 231 244 256 257 262 259 259 262 263 266 266 265 260 258 253 249 252 259 273 291 289 286 284 271 120 116 109 110 124 121 127 137 136 145 142 138 141 144 151 155 163 175 170 162 149 138 134 134 134 133 133 135 138 139 139 133 127 129 134 139 140 143 145 146 148 145 144 143 138 130 119 99 75 37 20 5 1 360 4 11 22 34 37 57 83 103 111 106 96 84 78 76 77 82 87 93
239 226 234 251 254 258 260 262 260 263 263 261 264 264 262 253 248 253 250 293 301 282 284 285 245 123 116 108 112 132 135 136 138 135 141 139 138 145 147 146 160 178 170 162 159 149 141 137 137 136 135 135 135 139 141 140 133 127 132 139 142 145 147 151 153 152 148 147 144 140 132 118 89 55 18 8 9 16 21 30 33 35 45 53 68 94 114 119 112 104 92 87 83 82 85 88 94
242 231 232 243 245 252 260 264 265 268 268 270 269 268 268 261 246 243 252 264 268 270 269 276 210 124 118 111 123 137 141 141 141 143 143 138 141 150 157 156 164 179 170 163 159 151 147 144 141 138 137 136 135 140 143 140 135 133 136 141 147 150 151 155 154 150 151 149 145 141 129 119 78 53 31 18 20 27 34 39 37 41 51 59 75 103 125 129 121 113 103 96 91 87 90 91 96
233 238 242 249 249 252 255 260 265 267 269 273 273 276 278 271 216 225 257 254 269 277 262 267 205 126 115 112 129 140 142 146 144 145 142 139 147 153 160 158 162 171 165 164 161 155 152 151 147 143 141 140 140 142 145 143 139 139 140 144 151 156 160 161 156 153 153 150 151 138 109 107 75 44 32 23 20 24 32 37 35 37 45 54 74 106 133 139 130 124 115 107 99 95 96 95 97
229 235 244 255 255 255 256 259 263 265 266 267 272 299 311 325 111 152 227 238 257 267 266 261 167 117 114 119 134 147 146 151 146 142 145 146 149 149 150 150 157 158 153 162 163 158 157 158 153 150 149 146 145 144 146 145 143 144 143 146 152 160 166 167 165 162 155 152 144 117 97 98 83 42 23 15 14 16 25 32 32 31 36 46 61 96 134 148 144 136 126 119 108 103 103 104 102
229 235 243 252 255 254 255 256 260 265 265 270 298 71 82 89 135 174 202 238 263 268 267 221 170 133 144 145 149 157 151 152 147 144 148 148 148 148 152 154 155 149 148 158 155 156 162 160 155 152 150 148 147 147 147 147 150 149 147 149 152 158 164 167 165 157 143 120 104 101 91 87 78 52 37 20 10 5 16 24 27 28 30 38 47 74 118 150 155 151 139 132 121 113 108 110 106
225 236 245 244 249 249 250 255 262 266 263 259 87 95 121 130 178 199 203 238 266 265 266 238 213 174 158 154 154 157 153 152 149 149 151 148 148 153 158 155 151 149 149 148 145 156 163 155 153 150 147 149 150 153 150 149 154 153 151 151 152 153 150 146 135 122 109 99 98 92 86 92 75 51 51 41 28 13 13 22 28 30 25 28 36 54 83 128 159 166 156 146 132 120 110 107 101
221 231 243 242 244 245 245 248 251 259 264 216 146 144 187 177 191 189 207 243 266 257 241 50 68 143 146 148 149 152 151 153 152 154 154 150 151 154 157 152 151 154 149 148 151 158 157 148 149 149 150 153 153 157 157 154 156 155 153 152 151 147 134 125 119 113 101 94 95 82 74 82 50 24 42 43 43 31 16 27 36 35 28 22 25 33 53 89 136 168 173 165 150 138 118 99 73
220 222 235 240 239 240 243 250 249 255 262 186 162 146 127 217 236 177 197 214 242 254 151 81 78 105 127 138 143 148 150 155 158 158 155 155 156 155 156 153 155 155 150 154 157 158 153 146 149 151 151 155 155 155 159 156 154 152 150 150 148 141 130 121 118 117 104 97 98 73 58 70 38 358 43 43 42 41 23 30 39 37 35 27 20 18 26 52 85 135 178 178 175 175 163 162 111
221 222 228 234 240 242 240 249 247 248 251 184 134 116 163 249 272 243 235 217 218 239 131 99 95 103 118 133 139 147 150 155 160 160 159 159 160 158 158 157 156 153 154 156 155 158 155 151 154 153 155 158 155 152 157 158 154 151 148 148 146 139 133 126 120 117 105 99 100 87 97 108 124 217 74 67 41 40 26 28 33 34 36 32 24 15 15 26 43 48 71 179 207 193 199 269 306
219 225 232 230 236 246 245 247 246 256 276 333 95 115 192 238 249 249 252 247 227 223 156 115 115 120 126 135 142 149 153 157 160 162 162 162 162 159 159 160 158 154 156 155 155 158 157 159 155 153 158 152 157 155 153 162 157 150 149 146 147 147 145 143 135 128 129 131 133 131 131 134 150 148 110 103 42 13 4 10 23 33 29 31 33 34 26 19 32 29 18 29 274 206 51 2 352
212 221 237 236 232 241 247 250 250 264 300 308 322 106 235 257 233 244 244 251 235 228 196 142 134 134 136 141 148 155 157 158 161 163 163 162 161 159 160 163 160 156 156 156 157 158 159 160 153 153 149 136 160 153 146 164 150 144 154 153 156 155 151 153 147 147 162 165 155 147 142 146 155 151 157 157 85 321 324 345 2 18 8 17 30 47 38 9 19 18 1 13 5 259 23 19 355
215 223 232 240 243 241 241 248 250 255 244 263 279 225 268 277 260 255 253 259 247 255 189 144 143 144 146 150 153 157 158 160 163 163 162 160 160 160 160 161 158 155 157 157 156 158 159 157 152 151 142 139 152 137 138 145 133 149 170 158 156 150 148 158 153 171 181 172 166 160 159 168 175 176 205 203 213 322 331 335 336 334 346 23 10 37 40 355 355 353 344 351 351 351 4 347 295
221 229 231 235 245 253 256 261 269 266 243 242 263 265 273 283 275 257 252 255 268 3 121 140 144 152 151 153 157 160 158 158 159 161 165 160 160 162 159 159 157 152 154 155 153 155 153 154 153 147 150 150 145 152 155 137 142 174 175 147 154 160 165 169 174 195 187 176 177 168 170 169 163 179 217 250 298 337 328 313 294 312 332 30 355 22 82 20 340 329 327 330 332 337 331 291 269
223 232 235 234 238 246 259 267 277 233 249 256 261 266 263 263 264 258 259 253 66 60 118 137 139 146 145 149 154 158 156 157 160 163 167 164 161 160 158 158 154 149 149 149 150 150 150 154 151 150 161 151 151 171 162 143 162 182 163 150 170 176 170 168 179 192 182 179 182 170 173 158 144 188 232 286 303 315 316 288 290 322 322 162 209 195 134 105 152 201 258 280 294 295 283 268 260
223 231 236 240 240 238 247 255 250 204 229 247 254 258 247 243 256 258 303 284 104 87 112 128 131 136 138 147 150 154 159 161 163 164 167 166 163 158 156 155 150 148 145 144 145 145 152 156 153 158 163 158 164 167 150 158 175 171 159 160 178 175 163 170 182 182 175 180 175 168 179 167 158 167 191 251 291 315 329 289 295 313 289 224 162 203 246 255 198 205 232 233 241 249 250 251 250
219 228 235 240 243 239 239 239 230 217 225 234 237 242 241 243 250 243 46 37 105 98 102 118 126 135 137 141 146 154 161 164 162 164 167 164 161 156 152 150 149 148 142 144 147 152 160 158 158 160 161 168 164 149 154 177 176 167 166 165 175 170 158 172 180 171 171 178 169 158 169 180 175 164 190 255 283 300 348 18 93 197 249 51 100 250 232 243 238 226 244 246 248 250 249 250 250
221 226 231 234 244 245 241 234 224 223 232 233 231 235 239 239 238 210 54 45 101 96 85 94 97 122 132 133 143 152 158 163 160 161 163 156 156 153 150 149 147 145 142 143 150 163 161 154 159 159 163 166 149 148 172 177 166 167 166 164 170 163 160 173 173 166 169 178 177 157 141 171 170 168 193 218 234 105 71 71 65 92 296 66 98 256 237 278 265 233 251 270 280 275 262 259 264
231 233 232 226 237 244 237 232 230 229 230 229 235 240 240 239 231 113 66 69 112 114 113 115 19 38 105 134 148 153 157 160 153 153 155 151 157 154 148 148 142 140 142 144 152 160 152 153 159 158 166 158 145 166 179 167 164 165 159 162 164 162 166 168 166 167 165 166 175 155 127 127 110 79 139 168 191 23 73 95 74 89 122 156 203 254 229 292 289 274 277 279 287 293 287 281 282
235 237 241 226 230 239 227 220 227 230 228 223 227 240 240 235 182 96 92 97 115 134 129 125 117 74 110 140 150 156 161 159 153 155 156 157 160 151 145 146 141 138 143 154 163 157 149 153 151 151 163 157 162 181 179 167 165 164 163 165 162 163 164 159 164 171 161 154 151 139 118 104 85 67 82 139 143 91 85 86 76 104 122 163 133 118 216 231 290 285 286 289 293 298 304 304 299
233 227 229 231 227 233 222 213 220 223 224 214 208 231 237 198 106 99 109 117 123 130 116 109 138 150 129 134 148 160 165 162 160 161 157 154 152 149 147 146 141 139 149 167 173 151 146 146 144 154 163 172 188 183 175 169 162 169 169 161 160 160 156 153 162 162 153 141 127 119 108 93 85 74 65 110 135 133 126 100 54 63 58 111 89 77 253 278 310 281 287 296 295 295 298 299 301
230 224 219 226 230 230 213 207 216 219 217 207 202 231 224 118 94 97 112 129 127 110 99 109 131 138 97 111 141 160 166 164 163 161 153 148 147 148 144 139 140 146 157 167 162 148 149 148 145 154 162 183 204 171 165 167 166 179 164 153 162 158 150 152 152 147 138 121 105 102 97 83 76 65 52 83 124 124 91 55 52 41 2 7 38 13 322 344 315 308 312 299 295 298 298 299 298
218 221 218 215 225 233 211 201 211 215 209 206 211 228 184 119 104 104 105 125 122 105 103 114 132 143 144 151 141 145 159 159 162 160 149 141 139 140 137 134 141 151 162 167 163 156 150 144 141 149 162 170 172 161 170 156 165 184 158 158 164 156 156 154 145 137 131 113 90 88 84 72 64 54 42 36 67 84 58 46 39 24 360 357 14 360 340 339 330 342 331 316 318 318 317 316 309
209 214 218 212 212 231 221 198 202 210 210 207 211 216 153 133 120 109 108 115 115 117 119 124 146 155 162 170 159 144 148 150 160 159 143 136 140 145 144 140 146 154 164 169 164 153 143 145 148 149 155 157 158 175 173 143 149 157 151 170 170 165 162 150 138 132 130 115 90 83 75 68 62 58 51 35 51 70 42 27 22 11 1 357 6 360 351 343 336 341 333 325 329 329 329 325 320
205 207 216 216 210 222 231 201 190 199 211 209 204 214 177 134 131 119 121 123 119 127 130 135 150 152 149 157 154 147 146 146 160 160 146 146 151 154 151 149 157 162 158 159 158 153 151 153 151 147 152 159 164 173 160 138 136 132 140 150 160 175 160 145 137 128 120 105 94 87 73 65 61 58 58 53 54 55 32 20 19 12 4 0 5 0 350 341 335 336 330 326 332 332 331 330 329
200 200 205 219 214 214 230 217 181 187 208 212 200 210 182 129 135 133 128 131 128 133 141 146 152 152 146 146 146 154 154 154 166 166 154 155 156 153 152 155 162 162 151 153 159 159 156 152 151 152 152 153 156 157 144 131 134 140 137 134 150 203 187 154 128 113 110 103 97 93 82 72 66 61 61 69 68 57 36 20 24 23 12 360 356 355 345 335 330 329 324 324 330 331 329 332 333
201 199 199 215 220 210 228 227 179 182 202 208 209 205 161 130 138 138 133 139 133 132 140 146 152 158 154 143 137 154 161 164 169 169 159 156 157 156 157 158 159 157 151 156 162 159 157 157 156 152 144 146 150 146 136 133 148 151 141 140 172 204 182 144 124 114 113 110 111 113 114 116 108 99 91 104 120 107 86 42 22 6 357 343 341 341 330 324 324 323 322 324 326 321 327 340 336
207 201 198 212 224 212 225 224 177 177 197 208 214 189 143 138 139 133 137 147 145 139 145 153 157 160 158 145 140 148 157 166 169 167 159 151 151 155 158 158 161 158 152 155 158 154 158 158 155 149 142 145 143 137 140 144 151 147 140 147 159 178 151 128 128 125 127 134 141 150 159 172 188 196 206 204 179 168 179 177 256 282 311 310 314 313 302 310 314 307 305 312 315 312 334 354 333
219 208 202 208 224 219 221 218 170 169 200 207 186 141 135 144 131 129 143 153 163 157 155 165 163 156 155 147 144 144 143 159 166 163 161 154 149 153 157 160 160 154 150 153 154 152 154 150 149 146 139 135 129 138 153 148 144 141 134 136 123 146 165 148 147 145 153 162 173 191 198 207 213 217 226 226 211 211 214 228 250 255 271 277 281 284 285 293 293 291 292 296 301 298 313 332 318
233 221 210 203 219 223 221 213 174 169 205 193 150 136 144 140 124 136 159 166 175 168 161 164 159 154 156 152 149 146 145 158 163 157 160 158 152 154 161 159 153 151 152 154 154 151 148 145 144 140 133 130 126 139 151 137 130 133 129 133 138 221 231 210 177 167 189 226 244 227 228 240 240 238 240 237 228 232 235 250 264 269 273 274 280 287 288 290 285 283 291 298 299 290 287 297 317
236 234 220 204 209 218 223 209 178 166 194 180 142 142 140 128 134 156 173 181 172 165 163 156 158 162 161 156 150 149 153 165 165 158 157 154 153 160 166 161 154 156 154 151 152 149 146 145 141 137 133 133 135 142 146 134 123 129 148 182 252 253 257 256 222 231 244 250 270 273 272 258 245 244 247 244 241 242 243 250 262 276 287 292 295 298 297 294 284 277 290 305 312 315 316 329 348
230 237 231 210 205 219 228 196 166 160 187 177 131 128 135 136 161 167 175 184 163 158 169 161 163 166 161 155 152 153 161 170 168 164 159 152 155 166 169 161 158 159 154 149 150 147 144 142 139 143 143 140 145 150 149 146 133 134 163 198 251 251 250 278 281 270 260 262 277 274 253 237 235 244 248 246 245 247 248 252 262 275 291 303 305 318 346 357 332 295 312 330 340 343 341 350 348
223 227 231 221 205 216 210 163 155 170 200 174 129 128 176 161 179 169 166 179 166 164 174 175 168 163 163 161 158 162 171 175 169 163 161 154 154 161 161 156 155 157 155 150 147 144 142 140 140 145 147 145 147 146 142 139 134 137 157 167 196 210 185 167 203 235 261 281 271 250 247 250 257 260 256 235 228 238 238 235 254 296 341 4 17 27 27 24 18 4 358 355 356 354 344 343 337
218 213 230 233 218 221 206 170 171 193 210 181 152 160 182 173 199 177 163 175 175 170 172 182 172 161 169 176 170 170 174 173 163 157 157 153 150 151 152 154 153 152 152 148 144 144 143 142 143 142 143 144 144 142 140 143 152 158 160 160 175 199 199 199 224 230 244 268 266 256 262 268 273 294 34 80 109 109 88 83 74 64 53 43 45 43 33 26 19 13 8 1 357 353 346 344 339
214 201 221 234 237 233 202 171 185 205 220 204 187 193 180 180 201 173 166 178 180 178 174 179 175 168 176 182 173 169 171 166 158 153 151 151 149 149 151 154 153 151 149 145 146 148 145 143 145 142 137 137 142 148 152 159 163 150 151 171 181 196 206 215 231 237 242 258 270 271 278 281 272 67 80 90 89 88 85 79 71 63 58 53 54 50 38 30 22 13 5 2 359 353 348 344 342
210 199 214 231 247 236 190 177 197 206 224 226 204 204 199 188 189 171 172 181 187 188 178 173 181 180 173 165 160 165 170 164 156 152 147 147 146 146 149 151 152 152 147 145 148 147 144 144 144 140 135 136 145 154 152 154 160 160 173 197 209 217 223 227 234 241 247 252 256 262 279 51 95 99 101 105 97 91 88 83 78 71 65 61 57 53 45 35 24 16 10 8 7 1 354 349 349
208 203 210 222 241 235 207 201 202 203 224 232 206 200 208 202 178 173 177 187 194 193 184 179 179 174 163 156 155 164 173 161 152 148 145 147 145 142 146 148 150 150 147 147 148 146 145 147 147 143 139 140 148 153 150 152 168 180 190 207 224 226 223 222 227 239 254 262 258 253 257 90 102 104 102 104 100 95 89 87 85 77 73 68 63 61 52 43 34 26 20 15 15 10 6 4 2
216 208 199 208 223 237 231 209 197 203 227 234 213 198 208 218 181 174 184 193 191 184 183 180 165 156 162 163 157 168 178 158 146 145 144 148 146 141 145 149 150 149 149 150 148 149 151 151 152 149 145 146 153 161 160 159 172 184 195 204 209 211 203 188 175 130 97 82 22 32 96 108 110 110 106 101 99 97 91 89 87 83 80 72 68 67 53 47 44 35 26 19 20 20 19 20 16
222 218 185 198 212 223 241 209 195 209 220 227 218 207 212 222 192 175 182 190 187 184 181 169 158 157 160 161 162 176 178 155 145 148 147 149 146 142 144 149 150 147 146 149 150 154 156 154 154 150 146 146 153 166 159 153 167 177 188 191 184 183 171 152 133 123 121 112 92 83 109 118 120 118 113 107 102 100 97 93 89 85 83 75 69 67 58 55 54 44 36 32 34 34 33 32 26
222 225 193 194 195 183 205 208 209 224 228 226 218 213 216 226 202 177 177 185 182 187 183 159 156 161 158 164 171 174 166 150 148 153 151 149 146 143 143 143 145 145 146 148 149 153 153 152 153 149 145 140 144 161 152 145 158 165 171 169 161 159 154 150 148 145 143 143 153 160 137 129 128 125 121 117 109 103 97 90 86 82 78 74 71 71 67 65 66 58 49 48 50 45 43 41 34
215 220 201 195 192 181 192 201 208 221 230 230 224 219 219 230 196 170 176 184 177 180 177 156 153 157 159 170 173 163 153 147 147 150 151 151 146 143 143 142 145 148 148 147 144 143 144 149 154 151 145 138 141 162 156 147 153 155 154 149 148 152 152 154 154 147 148 154 162 157 141 137 133 126 123 118 109 103 93 84 82 80 79 77 77 78 76 72 71 65 57 58 58 51 49 47 41
210 214 200 199 205 189 187 201 206 215 223 221 217 219 228 226 169 162 176 179 175 178 167 151 149 153 156 167 164 151 148 148 149 151 152 152 148 145 143 144 147 148 149 149 141 135 140 149 151 144 138 135 141 157 157 151 152 149 144 140 143 149 150 153 153 146 144 144 147 150 145 140 133 125 119 110 105 100 92 86 82 80 81 81 80 80 79 76 73 68 63 64 64 58 55 53 48
205 206 194 200 212 193 182 206 201 217 235 216 199 197 354 170 146 158 170 168 179 185 156 140 148 157 158 159 153 147 147 148 153 156 153 151 148 146 145 145 146 145 144 142 137 137 144 146 142 138 137 139 143 153 157 152 151 148 145 144 145 146 147 150 148 144 143 142 146 150 145 136 128 121 113 104 100 98 94 90 86 82 81 82 83 83 82 80 77 75 71 70 68 61 53 49 48
190 198 199 203 215 205 187 202 180 71 243 210 185 163 94 123 152 152 159 171 186 180 142 132 149 162 163 156 148 147 150 151 157 159 154 150 146 146 149 148 145 142 138 136 138 145 149 143 139 139 138 140 148 160 164 159 155 148 144 145 145 144 146 143 139 138 139 141 143 142 137 130 124 117 111 105 100 97 95 92 89 86 84 86 89 88 85 83 81 79 75 70 64 55 48 43 42
191 186 202 207 214 215 201 200 185 188 225 201 193 203 163 156 184 158 168 181 175 151 132 134 148 157 159 157 152 150 152 155 159 159 154 150 148 148 149 147 144 142 141 141 145 148 146 142 142 139 136 142 155 166 170 170 165 151 140 139 138 139 139 135 131 132 135 136 137 137 133 127 122 116 110 107 103 100 98 95 93 91 90 90 90 87 85 83 79 77 74 68 61 54 50 42 36
213 183 201 216 213 207 191 199 203 196 215 213 206 211 193 180 185 168 181 177 144 128 137 144 152 155 153 155 158 155 152 156 159 156 152 152 153 151 148 146 144 144 144 143 142 140 140 144 147 144 142 146 150 151 150 150 147 137 131 132 134 135 133 129 130 135 138 138 136 135 132 127 122 117 112 108 104 100 96 93 91 89 87 87 87 85 82 79 76 74 73 69 62 57 54 43 34
215 190 198 223 227 209 188 190 209 201 205 215 215 211 199 194 174 167 187 173 137 137 161 160 160 158 151 154 162 157 151 158 162 158 155 156 156 152 149 147 143 143 143 140 140 140 142 147 150 149 147 147 145 142 138 132 129 128 130 134 135 134 132 131 133 138 139 137 135 133 129 125 122 118 114 108 102 97 92 89 87 86 84 83 82 82 81 80 77 74 72 69 64 57 54 47 37
208 195 192 210 219 212 202 193 204 216 208 205 222 215 195 205 173 167 184 169 144 150 162 160 158 153 150 155 160 158 156 162 164 159 157 158 155 151 150 147 144 143 142 142 144 143 142 147 152 151 146 143 141 137 134 130 130 133 136 134 133 134 138 139 138 140 139 136 134 132 128 125 121 116 112 107 101 95 91 90 88 86 84 82 80 79 79 80 79 74 68 64 61 55 49 45 38
199 206 200 204 203 204 208 196 193 216 216 209 231 222 202 214 161 164 179 163 148 151 146 148 156 152 153 160 160 160 162 165 164 160 158 157 154 151 149 147 146 144 143 145 145 141 143 149 151 145 138 137 136 133 132 132 133 135 134 132 134 137 141 141 140 139 136 133 130 126 125 126 121 115 110 107 102 96 91 90 87 84 83 81 79 78 76 77 77 71 61 54 52 47 42 40 35